[[{"header":{"parameterUnit":"m.s-1","parameterCategory":1,"la1":30.2991,"la2":30.254,"lo1":-89.0895,"lo2":-89.0444,"dy":0.0017,"dx":0.0017,"nx":28,"ny":28,"refTime":"2025-03-24T03:00:00:Z","depth":0,"parameterNumber":2,"parameterNumberName":"U-component_of_WINDS"},"data":[0,0,0,0,0,0,0,0,0,0,0,0,0,0,0,0,0,0,0,0,0,0,0,0,0,0,0,0,0,0,0,0,0,0,0,0,0,0,0,0,0,0,0,0,0,0,0,0,0,0,0,0,0,0,0,0,0,0,-0.2281,-0.228,0,-0.2195,-0.2194,-0.2193,-0.215,-0.215,-0.215,-0.215,-0.2063,-0.2061,-0.2058,0,0,0,0,0,0,0,0,0,0,0,0,0,-0.2411,-0.2409,-0.2281,-0.228,-0.2279,-0.2195,-0.2194,-0.2193,-0.215,-0.215,-0.215,-0.215,-0.2064,-0.2061,-0.2058,0,0,0,0,0,0,0,0,0,0,0,0,0,-0.2343,-0.2408,-0.2281,-0.2248,-0.2244,-0.2195,-0.2194,-0.2192,-0.215,-0.215,-0.215,-0.215,-0.2064,-0.2061,-0.2058,-0.2036,0,0,-0.2047,-0.2045,0,0,0,0,0,0,0,0,-0.2347,-0.2338,-0.2254,-0.225,-0.2246,-0.2183,-0.2207,-0.214,-0.215,-0.2186,-0.215,-0.215,-0.2103,-0.2096,-0.208,-0.2032,-0.2028,-0.2047,-0.2044,-0.2043,-0.2042,0,0,0,0,0,0,0,-0.2351,-0.2341,-0.2247,-0.2253,-0.2248,-0.2238,-0.2228,-0.2194,-0.2146,-0.2183,-0.218,-0.217,-0.2101,-0.2084,-0.2078,-0.2027,-0.2047,-0.2044,-0.2041,-0.204,-0.1957,-0.1957,0,0,0,0,0,0,-0.2361,-0.2346,-0.225,-0.2244,-0.2297,-0.2235,-0.2224,-0.2203,-0.2146,-0.2137,-0.217,-0.2168,-0.209,-0.2082,-0.2075,-0.2045,-0.2043,-0.204,-0.2038,-0.1957,-0.1957,-0.1957,0,0,0,0,0,0,-0.2364,-0.2353,-0.2253,-0.2294,-0.2281,-0.2233,-0.221,-0.2202,-0.2184,-0.2136,-0.2127,-0.2161,-0.2089,-0.2079,-0.2046,-0.2042,-0.2038,-0.2035,-0.1957,-0.1957,-0.1957,-0.1987,0,0,0,0,0,0,-0.2368,-0.2354,-0.2345,-0.2294,-0.2279,-0.2226,-0.2209,-0.22,-0.2178,-0.2175,-0.2126,-0.2117,-0.2089,-0.2051,-0.2042,-0.2037,-0.2032,-0.1957,-0.1957,-0.1957,-0.1986,-0.1988,-0.199,0,0,0,0,0,-0.2373,-0.2357,-0.2345,-0.2334,-0.2266,-0.2225,-0.2217,-0.2183,-0.2178,-0.2169,-0.2138,-0.2119,-0.2044,-0.2048,-0.2038,-0.2031,-0.1957,-0.1957,-0.1957,-0.1986,-0.1988,-0.1989,0,0,0,0,0,0,-0.2409,-0.235,-0.2336,-0.2303,-0.227,-0.2218,-0.2205,-0.2187,-0.2154,-0.2153,-0.2113,-0.2103,-0.2073,-0.2049,-0.2055,-0.2008,-0.1999,-0.1997,-0.2024,-0.2026,-0.2027,-0.2034,-0.2029,0,0,0,0,0,-0.2414,-0.2385,-0.2335,-0.2311,-0.2295,-0.2253,-0.2234,-0.2212,-0.2176,-0.2162,-0.2128,-0.2094,-0.2063,-0.2043,-0.2012,-0.1983,-0.1972,-0.1973,-0.1975,-0.1977,-0.1975,-0.1958,-0.1959,-0.1956,-0.1956,-0.1956,0,0,-0.2422,-0.2386,-0.2371,-0.2318,-0.2289,-0.2261,-0.2242,-0.2213,-0.2192,-0.2157,-0.2123,-0.2098,-0.2057,-0.2026,-0.2011,-0.2005,-0.1973,-0.1976,-0.1978,-0.1975,-0.1958,-0.1959,-0.1959,-0.1956,-0.1956,-0.1956,0,0,-0.2423,-0.2393,-0.237,-0.2342,-0.2299,-0.2271,-0.2266,-0.2217,-0.2199,-0.2164,-0.2138,-0.2113,-0.206,-0.2032,-0.2011,-0.2003,-0.1985,-0.1994,-0.2002,-0.1987,-0.1987,-0.1987,-0.1984,-0.1984,-0.1993,-0.1993,-0.1993,0,-0.2439,-0.2395,-0.236,-0.2333,-0.231,-0.2278,-0.2255,-0.2229,-0.2178,-0.2164,-0.2158,-0.2092,-0.2062,-0.2024,-0.2022,-0.2006,-0.1999,-0.1999,-0.199,-0.1989,-0.1989,-0.1986,-0.1985,-0.1994,-0.1994,-0.1994,-0.1994,0,-0.2417,-0.2387,-0.2374,-0.2325,-0.2301,-0.2276,-0.2238,-0.2218,-0.2198,-0.2172,-0.2137,-0.2101,-0.2062,-0.2051,-0.2032,-0.2011,-0.2009,-0.1997,-0.1988,-0.1991,-0.1988,-0.1986,-0.1996,-0.1996,-0.1995,-0.1995,0,0,-0.2437,-0.237,-0.2366,-0.2344,-0.2295,-0.2271,-0.2245,-0.2207,-0.2191,-0.2157,-0.2134,-0.2091,-0.208,-0.2056,-0.2033,-0.2019,-0.2016,-0.2009,-0.2008,-0.2012,-0.1991,-0.2,-0.1999,-0.2003,-0.2003,-0.2003,-0.1995,0,-0.2431,-0.2382,-0.235,-0.2314,-0.2286,-0.2256,-0.2233,-0.2201,-0.2175,-0.2149,-0.2121,-0.2091,-0.2078,-0.2064,-0.2049,-0.2019,-0.2011,-0.2019,-0.1982,-0.1981,-0.1993,-0.1997,-0.2007,-0.2001,-0.1993,-0.1993,-0.1993,0,-0.2417,-0.2384,-0.2345,-0.2299,-0.2287,-0.2267,-0.2229,-0.2204,-0.2167,-0.215,-0.2124,-0.2101,-0.2072,-0.2066,-0.2027,-0.2033,-0.2016,-0.2,-0.1999,-0.1993,-0.1987,-0.1993,-0.1998,-0.1998,-0.199,-0.199,-0.199,0,-0.2436,-0.2382,-0.2352,-0.2334,-0.228,-0.2266,-0.2243,-0.2206,-0.2186,-0.2153,-0.214,-0.2105,-0.2086,-0.2059,-0.2028,-0.2026,-0.1992,-0.1983,-0.1977,-0.1978,-0.1971,-0.1972,-0.1974,-0.1961,-0.1961,-0.1961,-0.1961,0,-0.2432,-0.241,-0.236,-0.2341,-0.2315,-0.2279,-0.2254,-0.2229,-0.2197,-0.2173,-0.2145,-0.2123,-0.2083,-0.2057,-0.2032,-0.2004,-0.1995,-0.1981,-0.1974,-0.1983,-0.1985,-0.1971,-0.1971,-0.196,-0.196,-0.196,-0.1961,0,-0.2449,-0.2414,-0.2379,-0.2331,-0.2319,-0.2302,-0.2261,-0.2242,-0.2215,-0.2186,-0.2177,-0.2136,-0.2103,-0.2069,-0.2026,-0.2009,-0.1982,-0.1973,-0.1994,-0.1991,-0.1987,-0.1988,-0.198,-0.1978,-0.1967,-0.1967,-0.1967,0,-0.2449,-0.243,-0.238,-0.2362,-0.234,-0.2311,-0.229,-0.2255,-0.2234,-0.2191,-0.2177,-0.2143,-0.2114,-0.2064,-0.203,-0.1997,-0.1987,-0.1987,-0.1982,-0.1992,-0.1987,-0.1989,-0.1987,-0.1988,-0.1989,-0.1989,-0.1989,0,-0.2452,-0.2436,-0.2406,-0.237,-0.2346,-0.2316,-0.2285,-0.2272,-0.2231,-0.2209,-0.2176,-0.2153,-0.2109,-0.2075,-0.2038,-0.2015,-0.1995,-0.1991,-0.1988,-0.1997,-0.201,-0.2003,-0.1998,-0.1991,-0.1991,-0.1991,-0.1991,-0.1991,-0.246,-0.2442,-0.2405,-0.2372,-0.2346,-0.2318,-0.2298,-0.2269,-0.224,-0.2201,-0.2182,-0.2149,-0.2114,-0.2062,-0.2039,-0.2013,-0.2008,-0.2003,-0.2002,-0.2001,-0.2004,-0.2014,-0.2007,-0.2007,-0.2006,-0.2006,-0.2006,0,-0.2462,-0.2436,-0.2407,-0.2365,-0.234,-0.2323,-0.2289,-0.2269,-0.224,-0.2208,-0.218,-0.2142,-0.211,-0.2074,-0.204,-0.2026,-0.2017,-0.2019,-0.2019,-0.2014,-0.2011,-0.2017,-0.2027,-0.2027,-0.2027,-0.2027,-0.2027,-0.2027,-0.246,-0.2429,-0.2409,-0.2366,-0.234,-0.2307,-0.2289,-0.2263,-0.2238,-0.2197,-0.2169,-0.2146,-0.2113,-0.2077,-0.2047,-0.2037,-0.2026,-0.2031,-0.2019,-0.2016,-0.2014,-0.2013,-0.2018,-0.2028,-0.2028,-0.2024,-0.2024,-0.2024]},{"header":{"parameterUnit":"m.s-1","parameterCategory":1,"la1":30.2991,"la2":30.254,"lo1":-89.0895,"lo2":-89.0444,"dy":0.0017,"dx":0.0017,"nx":28,"ny":28,"refTime":"2025-03-24T03:00:00:Z","depth":0,"parameterNumber":3,"parameterNumberName":"V-component_of_WINDS"},"data":[0,0,0,0,0,0,0,0,0,0,0,0,0,0,0,0,0,0,0,0,0,0,0,0,0,0,0,0,0,0,0,0,0,0,0,0,0,0,0,0,0,0,0,0,0,0,0,0,0,0,0,0,0,0,0,0,0,0,5.4953,5.4955,0,5.5116,5.5118,5.5119,5.5141,5.514,5.5138,5.5137,5.5294,5.53,5.5305,0,0,0,0,0,0,0,0,0,0,0,0,0,5.4654,5.4659,5.4953,5.4955,5.4957,5.5115,5.5118,5.512,5.5142,5.514,5.5138,5.5136,5.5293,5.5299,5.5306,0,0,0,0,0,0,0,0,0,0,0,0,0,5.4796,5.4661,5.4952,5.4987,5.4992,5.5115,5.5118,5.512,5.5142,5.514,5.5137,5.5135,5.529,5.5299,5.5307,5.5404,0,0,5.5333,5.5336,0,0,0,0,0,0,0,0,5.4788,5.4807,5.498,5.4985,5.499,5.5106,5.507,5.5215,5.5143,5.5085,5.5137,5.5134,5.5233,5.5246,5.5281,5.5411,5.5418,5.5333,5.5338,5.5342,5.5344,0,0,0,0,0,0,0,5.4778,5.48,5.5017,5.4982,5.4989,5.4992,5.501,5.5098,5.5169,5.5089,5.5092,5.5111,5.5235,5.5273,5.5285,5.5421,5.5333,5.534,5.5346,5.5349,5.5641,5.5644,0,0,0,0,0,0,5.4763,5.4792,5.5012,5.5022,5.4882,5.4999,5.5019,5.5071,5.5168,5.5181,5.5113,5.5111,5.526,5.5275,5.5291,5.5413,5.5342,5.535,5.5355,5.5638,5.5642,5.5645,0,0,0,0,0,0,5.4757,5.4783,5.5005,5.4908,5.4936,5.5007,5.5065,5.5075,5.5113,5.5186,5.5198,5.5139,5.5259,5.5279,5.5377,5.5419,5.5354,5.5361,5.5635,5.5639,5.5643,5.5657,0,0,0,0,0,0,5.4748,5.478,5.4819,5.4909,5.4942,5.5091,5.5068,5.508,5.5129,5.5129,5.5214,5.5225,5.5258,5.5364,5.5385,5.5429,5.5368,5.5632,5.5637,5.5642,5.5653,5.5661,5.5668,0,0,0,0,0,5.4737,5.4814,5.4821,5.4847,5.4992,5.5093,5.5112,5.5151,5.5132,5.5171,5.5219,5.5223,5.5411,5.5374,5.5398,5.5445,5.5629,5.5636,5.5642,5.565,5.566,5.5668,0,0,0,0,0,0,5.4723,5.4826,5.4835,5.4944,5.501,5.5097,5.5147,5.516,5.523,5.5227,5.5269,5.5288,5.5385,5.5424,5.5382,5.5545,5.5518,5.5529,5.5516,5.5526,5.5533,5.5522,5.5375,0,0,0,0,0,5.4734,5.481,5.4894,5.4982,5.5015,5.5076,5.5121,5.5146,5.5215,5.5242,5.5296,5.5361,5.5435,5.5482,5.5554,5.5659,5.5678,5.5703,5.571,5.5716,5.5725,5.5786,5.5798,5.5665,5.5665,5.5665,0,0,5.4754,5.482,5.4864,5.4981,5.5035,5.5112,5.5099,5.5179,5.5236,5.5253,5.5351,5.5393,5.5468,5.5571,5.5618,5.5607,5.5767,5.5724,5.5728,5.5734,5.5793,5.5806,5.5817,5.5669,5.5668,5.5668,0,0,5.4832,5.4889,5.4969,5.5025,5.511,5.515,5.5169,5.5256,5.5286,5.5385,5.5401,5.5467,5.5593,5.5647,5.569,5.5792,5.5798,5.5813,5.5852,5.591,5.5921,5.593,5.5968,5.598,5.5822,5.5822,5.5822,0,5.4846,5.4964,5.5008,5.509,5.5141,5.5165,5.5246,5.5297,5.5399,5.5432,5.5418,5.558,5.5631,5.5748,5.5774,5.5807,5.583,5.5804,5.5916,5.5926,5.5936,5.5972,5.5986,5.5824,5.5823,5.5823,5.5823,0,5.4978,5.506,5.5115,5.5218,5.5274,5.5355,5.541,5.5462,5.5482,5.5523,5.5625,5.5688,5.5775,5.5804,5.5823,5.5924,5.5915,5.5908,5.5881,5.5949,5.5984,5.5998,5.5826,5.5825,5.5825,5.5824,0,0,5.5049,5.5179,5.5198,5.5247,5.5343,5.5406,5.5487,5.5576,5.562,5.569,5.5759,5.5867,5.5863,5.5913,5.5938,5.5989,5.6067,5.5976,5.5978,5.5992,5.6184,5.619,5.6205,5.6072,5.6075,5.6077,5.6179,0,5.5139,5.529,5.5333,5.5459,5.5536,5.5561,5.5632,5.5698,5.5739,5.5808,5.5852,5.5929,5.5917,5.5947,5.5999,5.6047,5.6106,5.604,5.6136,5.6139,5.6118,5.6223,5.6229,5.6321,5.6192,5.6195,5.6196,0,5.5263,5.5341,5.5476,5.5566,5.5599,5.5663,5.5749,5.5815,5.589,5.5917,5.5974,5.5996,5.6081,5.605,5.6167,5.6121,5.6163,5.6193,5.6197,5.6208,5.6172,5.6238,5.6351,5.6366,5.6218,5.6216,5.6214,0,5.5304,5.5441,5.5541,5.5581,5.5687,5.5732,5.5778,5.5851,5.5903,5.5976,5.601,5.6091,5.6136,5.6198,5.624,5.6213,5.6355,5.6326,5.6378,5.6377,5.6407,5.6404,5.653,5.6432,5.6432,5.6432,5.6431,0,5.54,5.5482,5.5562,5.5623,5.5715,5.5764,5.5853,5.5899,5.5965,5.6034,5.6059,5.6123,5.6175,5.6245,5.6279,5.6372,5.6391,5.6414,5.6422,5.6413,5.641,5.6441,5.6436,5.6435,5.6434,5.6434,5.6433,0,5.5461,5.5518,5.5628,5.5722,5.5747,5.5811,5.589,5.595,5.5993,5.6081,5.6104,5.617,5.6255,5.6304,5.6409,5.6431,5.6536,5.654,5.6512,5.6515,5.6565,5.656,5.6715,5.6739,5.6624,5.6625,5.6626,0,5.5519,5.5584,5.5686,5.5736,5.5784,5.5864,5.5918,5.5968,5.6023,5.6115,5.6163,5.6251,5.6323,5.6457,5.6513,5.6594,5.6601,5.665,5.6613,5.6603,5.6604,5.66,5.6607,5.6656,5.6657,5.6658,5.6659,0,5.5616,5.5642,5.5721,5.5811,5.5876,5.5948,5.6019,5.6058,5.612,5.618,5.6269,5.6326,5.6436,5.6522,5.6609,5.6653,5.6666,5.667,5.6687,5.6678,5.666,5.6672,5.653,5.6666,5.6665,5.6665,5.6664,5.6664,5.5679,5.5739,5.5821,5.5909,5.5969,5.6036,5.6098,5.6151,5.6227,5.6324,5.6348,5.6442,5.6516,5.6635,5.6682,5.6754,5.6746,5.6769,5.6775,5.678,5.6783,5.6648,5.677,5.677,5.6769,5.6769,5.6769,0,5.5779,5.5835,5.5915,5.6017,5.6086,5.6096,5.6176,5.6232,5.6316,5.6387,5.6459,5.6562,5.6647,5.6711,5.6797,5.6843,5.6852,5.6864,5.6861,5.6872,5.6785,5.6763,5.6856,5.6856,5.6856,5.6856,5.6856,5.6856,5.5839,5.5942,5.5978,5.6111,5.6165,5.6261,5.6306,5.6368,5.6425,5.654,5.6613,5.6655,5.6723,5.6815,5.6893,5.6909,5.694,5.6952,5.6969,5.6887,5.6878,5.6869,5.6848,5.6958,5.6958,5.705,5.7051,5.7052]}]]